CW0060 Weather Reports


time (UTC)temp
C
wind
direction
speed
KPH
gust
KPH
rain 1hr
cm
rain 24hr
cm
rain mn
cm
humidity
%
barometer
mb
20260507023705 8 233 8.0 14.5 0.00 0.69 0.05 93 1008.7
20260507021706 8 262 8.0 16.1 0.03 0.69 0.05 93 1008.4
20260507020705 9 250 6.4 12.9 0.03 0.69 0.05 93 1008.3
20260507015705 9 191 8.0 14.5 0.03 0.69 0.05 93 1008.1
20260507014705 9 269 6.4 12.9 0.03 0.69 0.05 93 1008.1
20260507014206 9 240 8.0 12.9 0.03 0.69 0.05 93 1008.1
20260507013705 9 277 6.4 12.9 0.03 0.69 0.05 93 1008.1
20260507013204 9 257 6.4 12.9 0.03 0.69 0.05 93 1008.1
20260507011706 9 233 6.4 14.5 0.00 0.66 0.05 93 1008.0
20260507005705 9 286 11.3 17.7 0.05 0.66 0.05 93 1008.0
20260507005206 9 252 11.3 17.7 0.05 0.66 0.05 93 1007.9
20260507004205 9 248 11.3 17.7 0.08 0.66 0.05 93 1008.0
20260507003705 9 208 9.7 16.1 0.10 0.66 0.05 93 1007.9
20260507003205 10 203 9.7 20.9 0.10 0.66 0.05 93 1007.9
20260507002706 10 239 11.3 20.9 0.13 0.66 0.05 93 1007.9
20260507001705 10 250 9.7 16.1 0.13 0.64 0.03 93 1007.8
20260507001231 10 255 8.0 12.9 0.13 0.64 0.03 93 1007.9
20260507000705 10 250 6.4 16.1 0.10 0.61 0.00 93 1007.9
20260507000206 10 264 8.0 16.1 0.10 0.61 0.61 93 1008.0
20260506235705 10 222 9.7 16.1 0.08 0.61 0.61 93 1007.9
20260506235205 10 219 8.0 14.5 0.08 0.58 0.58 93 1007.9
20260506234705 10 226 8.0 14.5 0.08 0.58 0.58 93 1007.9
20260506234204 10 283 9.7 14.5 0.08 0.56 0.56 92 1007.8
20260506233205 10 271 6.4 14.5 0.10 0.56 0.56 92 1007.8
20260506232731 10 214 6.4 14.5 0.10 0.53 0.53 92 1007.7
20260506232206 10 253 6.4 14.5 0.13 0.56 0.53 92 1007.7
20260506230205 10 245 4.8 9.7 0.15 0.53 0.51 92 1007.6
20260506225708 10 252 4.8 9.7 0.18 0.56 0.51 92 1007.6
20260506225205 10 248 4.8 9.7 0.18 0.56 0.51 92 1007.6
20260506224705 11 262 4.8 9.7 0.20 0.58 0.51 92 1007.5
20260506224237 11 258 6.4 9.7 0.18 0.58 0.48 92 1007.5
20260506223705 11 224 6.4 12.9 0.15 0.56 0.46 92 1007.5
20260506223205 11 246 6.4 14.5 0.15 0.56 0.43 92 1007.3
20260506222705 11 269 6.4 14.5 0.13 0.53 0.43 92 1007.4
20260506222205 11 257 6.4 14.5 0.10 0.53 0.41 92 1007.3
20260506221705 11 234 6.4 14.5 0.13 0.56 0.41 92 1007.2
20260506221205 11 271 8.0 14.5 0.10 0.53 0.38 92 1007.2
20260506220705 11 250 8.0 14.5 0.08 0.51 0.36 92 1007.1
20260506220205 11 248 8.0 12.9 0.08 0.51 0.33 92 1007.1
20260506215705 11 229 6.4 9.7 0.05 0.48 0.33 92 1007.1
20260506215206 11 233 6.4 11.3 0.03 0.46 0.30 91 1007.1
20260506214705 11 240 6.4 12.9 0.03 0.46 0.30 91 1007.1
20260506213205 11 252 6.4 12.9 0.03 0.46 0.30 91 1007.1
20260506212705 11 238 6.4 11.3 0.03 0.46 0.30 91 1007.0
20260506211706 11 252 8.0 14.5 0.00 0.43 0.28 91 1006.9
20260506211205 11 219 9.7 16.1 0.03 0.43 0.28 91 1006.9
20260506210705 11 222 11.3 16.1 0.03 0.43 0.28 91 1006.9
20260506210205 11 226 9.7 16.1 0.03 0.43 0.28 91 1006.9
20260506205706 11 233 9.7 12.9 0.05 0.43 0.28 90 1006.9
20260506205205 11 257 6.4 11.3 0.05 0.43 0.28 90 1006.9
20260506204705 11 245 4.8 11.3 0.05 0.43 0.28 90 1006.9
20260506204206 11 252 6.4 11.3 0.08 0.43 0.28 90 1006.8
20260506203705 11 243 4.8 11.3 0.08 0.43 0.28 90 1006.8
20260506203205 11 220 4.8 16.1 0.08 0.43 0.28 89 1006.7
20260506202706 11 212 6.4 16.1 0.10 0.43 0.28 89 1006.8
20260506202206 11 226 8.0 16.1 0.15 0.43 0.28 89 1006.7
20260506201705 11 224 9.7 14.5 0.20 0.43 0.25 89 1006.6
20260506201205 12 253 8.0 12.9 0.23 0.43 0.25 88 1006.7
20260506200706 12 269 8.0 14.5 0.25 0.43 0.25 88 1006.6
20260506200205 12 257 8.0 17.7 0.23 0.41 0.23 88 1006.5
20260506195206 12 238 11.3 24.1 0.23 0.38 0.23 87 1006.5
20260506194705 12 243 11.3 24.1 0.23 0.38 0.23 86 1006.4
20260506194204 12 257 11.3 24.1 0.20 0.36 0.20 86 1006.4
20260506193705 12 255 11.3 17.7 0.20 0.36 0.20 85 1006.4
20260506193204 13 245 8.0 17.7 0.20 0.36 0.20 84 1006.2
20260506192705 13 212 8.0 17.7 0.15 0.33 0.15 83 1006.1
20260506192206 13 245 11.3 17.7 0.10 0.25 0.10 82 1006.1
20260506191705 13 252 9.7 20.9 0.05 0.20 0.05 81 1005.9
20260506191205 13 221 9.7 24.1 0.00 0.15 0.00 80 1005.8
20260506190704 13 314 11.3 24.1 0.00 0.15 0.00 79 1005.8
20260506190205 13 255 12.9 24.1 0.00 0.15 0.00 79 1005.7
20260506185206 13 214 9.7 25.7 0.00 0.15 0.00 78 1005.5
20260506184705 13 240 11.3 25.7 0.00 0.15 0.00 77 1005.5
20260506184206 14 250 12.9 25.7 0.00 0.15 0.00 77 1005.5
20260506183706 14 207 11.3 17.7 0.00 0.15 0.00 77 1005.4
20260506183205 14 231 11.3 19.3 0.00 0.15 0.00 76 1005.4
20260506182705 14 252 9.7 20.9 0.00 0.15 0.00 75 1005.2
20260506182206 15 233 11.3 20.9 0.00 0.15 0.00 74 1005.1
20260506181707 15 226 12.9 20.9 0.00 0.18 0.00 73 1005.1
20260506180723 15 208 14.5 24.1 0.00 0.18 0.00 70 1004.9
20260506180205 15 229 11.3 24.1 0.00 0.18 0.00 68 1004.9
20260506175705 15 229 6.4 12.9 0.00 0.18 0.00 66 1004.7
20260506175206 15 250 6.4 16.1 0.00 0.18 0.00 65 1004.7
20260506174705 15 259 8.0 16.1 0.00 0.20 0.00 65 1004.7
20260506173708 15 239 8.0 17.7 0.00 0.23 0.00 65 1004.7
20260506172206 15 290 9.7 20.9 0.00 0.25 0.00 63 1004.6
20260506171705 16 226 11.3 22.5 0.00 0.30 0.00 63 1004.4
20260506171204 16 217 11.3 22.5 0.00 0.30 0.00 63 1004.3
20260506165705 16 240 12.9 22.5 0.00 0.36 0.00 62 1004.2
20260506165204 16 290 12.9 20.9 0.00 0.41 0.00 61 1004.1
20260506164705 16 222 12.9 20.9 0.00 0.43 0.00 61 1004.1
20260506164206 16 221 12.9 20.9 0.00 0.46 0.00 61 1004.0
20260506163705 16 238 11.3 22.5 0.00 0.51 0.00 61 1004.0
20260506162214 16 203 11.3 20.9 0.00 0.61 0.00 60 1004.1
20260506160232 17 219 9.7 19.3 0.00 0.81 0.00 60 1004.2
20260506155705 17 224 9.7 14.5 0.00 0.86 0.00 60 1004.2
20260506155205 17 217 9.7 14.5 0.00 0.89 0.00 63 1004.2
20260506154206 17 222 11.3 19.3 0.00 1.02 0.00 61 1004.2
20260506153705 17 220 11.3 16.1 0.00 1.27 0.00 61 1004.2
20260506152705 17 222 9.7 16.1 0.00 1.80 0.00 61 1004.3
20260506152207 17 224 9.7 16.1 0.00 1.96 0.00 63 1004.3
20260506151706 17 243 9.7 17.7 0.00 2.26 0.00 59 1004.2
20260506150705 17 212 9.7 17.7 0.00 2.59 0.00 59 1004.1
20260506150205 17 210 9.7 17.7 0.00 2.59 0.00 59 1004.1
20260506145206 18 215 11.3 17.7 0.00 2.59 0.00 57 1004.2
20260506144706 18 236 9.7 17.7 0.00 2.59 0.00 55 1004.2
20260506144208 18 212 9.7 20.9 0.00 2.59 0.00 60 1004.1
20260506143205 18 221 12.9 20.9 0.00 2.59 0.00 56 1004.2
20260506142705 17 214 11.3 20.9 0.00 2.59 0.00 58 1004.3
20260506142209 17 202 9.7 16.1 0.00 2.59 0.00 59 1004.3
20260506141706 17 245 8.0 25.7 0.00 2.59 0.00 59 1004.2
20260506141205 17 238 11.3 25.7 0.00 2.59 0.00 56 1004.2
20260506140705 17 231 9.7 14.5 0.00 2.59 0.00 56 1004.3
20260506140205 17 229 6.4 12.9 0.00 2.59 0.00 60 1004.2
20260506135205 17 161 9.7 22.5 0.00 2.59 0.00 59 1004.1
20260506134205 17 236 8.0 12.9 0.00 2.59 0.00 62 1004.2
20260506133205 17 233 8.0 17.7 0.00 2.59 0.00 61 1004.3
20260506132705 17 229 9.7 17.7 0.00 2.59 0.00 61 1004.4
20260506132206 17 245 8.0 17.7 0.00 2.59 0.00 62 1004.4
20260506131706 17 222 9.7 19.3 0.00 2.59 0.00 62 1004.4
20260506131208 17 240 11.3 19.3 0.00 2.59 0.00 60 1004.3
20260506130205 18 255 6.4 16.1 0.00 2.59 0.00 62 1004.1
20260506125705 18 245 8.0 16.1 0.00 2.59 0.00 61 1004.1
20260506125206 17 151 8.0 16.1 0.00 2.59 0.00 63 1004.2
20260506124708 17 264 6.4 17.7 0.00 2.59 0.00 62 1004.2
20260506124205 17 226 8.0 17.7 0.00 2.59 0.00 66 1004.3
20260506123708 17 219 9.7 19.3 0.00 2.59 0.00 64 1004.3
20260506123209 17 240 11.3 19.3 0.00 2.59 0.00 61 1004.4
20260506122705 17 276 9.7 19.3 0.00 2.59 0.00 63 1004.4
20260506122206 16 148 9.7 19.3 0.00 2.59 0.00 64 1004.5
20260506121706 17 201 11.3 20.9 0.00 2.59 0.00 63 1004.5
20260506121205 16 210 11.3 20.9 0.00 2.59 0.00 66 1004.5
20260506120705 17 250 12.9 20.9 0.00 2.59 0.00 64 1004.5
20260506120205 17 207 11.3 19.3 0.00 2.59 0.00 63 1004.5
20260506115705 17 229 9.7 20.9 0.00 2.59 0.00 64 1004.4
20260506114705 17 252 11.3 17.7 0.00 2.59 0.00 63 1004.5
20260506114206 17 221 8.0 11.3 0.00 2.59 0.00 66 1004.6
20260506113706 16 210 8.0 20.9 0.00 2.59 0.00 69 1004.6
20260506113206 16 245 9.7 20.9 0.00 2.59 0.00 71 1004.6
20260506112213 16 207 11.3 20.9 0.00 2.59 0.00 67 1004.7
20260506111705 16 214 12.9 20.9 0.00 2.59 0.00 68 1004.7
20260506110205 18 163 11.3 20.9 0.00 2.59 0.00 70 1004.6
20260506105205 17 160 9.7 19.3 0.00 2.59 0.00 68 1004.9
20260506104705 17 243 8.0 14.5 0.00 2.59 0.00 73 1004.9
20260506102206 16 229 12.9 20.9 0.00 2.59 0.00 72 1005.0
20260506101705 16 217 12.9 20.9 0.00 2.59 0.00 67 1005.0
20260506101205 17 231 11.3 20.9 0.00 2.59 0.00 70 1004.9
20260506100706 17 229 11.3 22.5 0.00 2.59 0.00 71 1004.9
20260506100227 17 180 11.3 22.5 0.00 2.59 0.00 71 1005.0
20260506095706 16 222 12.9 22.5 0.00 2.59 0.00 71 1004.9
20260506095205 16 210 9.7 19.3 0.00 2.59 0.00 73 1004.9
20260506094705 16 250 8.0 17.7 0.00 2.59 0.00 76 1004.7
20260506094205 15 239 9.7 17.7 0.00 2.59 0.00 76 1005.0
20260506093705 15 214 9.7 22.5 0.00 2.59 0.00 73 1005.0
20260506093205 15 253 9.7 22.5 0.00 2.59 0.00 74 1004.9
20260506092705 15 197 9.7 22.5 0.00 2.59 0.00 77 1005.0
20260506092206 15 245 8.0 14.5 0.00 2.59 0.00 75 1005.1
20260506091706 15 214 4.8 9.7 0.00 2.59 0.00 76 1005.2
20260506090706 14 240 3.2 8.0 0.00 2.59 0.00 82 1005.2
20260506085705 14 46 4.8 11.3 0.00 2.59 0.00 82 1005.4
20260506085206 14 250 4.8 11.3 0.00 2.59 0.00 83 1005.4
20260506084705 13 283 4.8 11.3 0.00 2.59 0.00 82 1005.4
20260506083705 13 269 4.8 17.7 0.00 2.59 0.00 84 1005.2
20260506083206 13 269 6.4 17.7 0.00 2.59 0.00 82 1005.1
20260506082706 13 231 6.4 11.3 0.00 2.59 0.00 84 1005.3
20260506082206 13 264 6.4 12.9 0.00 2.59 0.00 83 1005.1
20260506081706 13 226 6.4 14.5 0.00 2.59 0.00 83 1005.1
20260506081206 13 269 8.0 16.1 0.00 2.59 0.00 84 1005.0
20260506080706 13 207 8.0 16.1 0.00 2.59 0.00 83 1005.0
20260506080205 13 194 9.7 19.3 0.00 2.59 0.00 85 1005.0
20260506072705 12 224 11.3 19.3 0.00 2.59 0.00 88 1005.1
20260506072206 12 265 11.3 20.9 0.00 2.59 0.00 88 1005.1
20260506071705 12 234 11.3 20.9 0.00 2.59 0.00 89 1005.2
20260506071205 12 224 11.3 20.9 0.00 2.59 0.00 90 1005.1
20260506070705 12 240 11.3 17.7 0.00 2.59 0.00 91 1005.1
20260506070205 12 208 11.3 17.7 0.00 2.59 0.00 91 1005.1
20260506062206 11 200 9.7 16.1 0.00 2.59 0.00 93 1005.2
20260506061706 11 201 8.0 16.1 0.00 2.59 0.00 94 1005.2
20260506060705 11 207 11.3 17.7 0.00 2.59 0.00 94 1005.1
20260506060206 11 212 9.7 17.7 0.00 2.59 0.00 94 1005.1
20260506050705 10 194 4.8 8.0 0.00 2.59 0.00 94 1005.2
20260506050206 10 219 3.2 8.0 0.00 2.59 0.00 94 1005.1
20260506044706 10 207 4.8 9.7 0.00 2.59 0.00 94 1005.2
20260506044206 10 185 4.8 12.9 0.00 2.59 0.00 94 1005.1
20260506043705 10 214 4.8 12.9 0.00 2.59 0.00 94 1005.1
20260506042205 10 190 1.6 4.8 0.00 2.59 0.00 94 1005.3
20260506041708 10 160 1.6 8.0 0.00 2.59 0.00 94 1005.2
20260506041205 10 135 1.6 8.0 0.00 2.59 0.00 94 1005.1
20260506040705 10 178 3.2 8.0 0.00 2.59 0.00 94 1005.0
20260506040205 10 156 3.2 6.4 0.00 2.59 0.00 94 1005.1
20260506035705 10 205 3.2 9.7 0.00 2.59 0.00 94 1005.1
20260506035206 10 212 4.8 14.5 0.00 2.59 0.00 94 1005.1
20260506034706 10 248 8.0 14.5 0.00 2.59 0.00 94 1005.2
20260506034205 10 222 8.0 14.5 0.00 2.59 0.00 94 1005.2
20260506033705 10 219 6.4 9.7 0.00 2.59 0.00 94 1005.3
20260506033205 10 207 4.8 8.0 0.00 2.59 0.00 94 1005.4
20260506032705 10 193 3.2 6.4 0.00 2.59 0.00 94 1005.3
20260506032206 10 170 3.2 6.4 0.00 2.59 0.00 94 1005.3
20260506031708 10 188 3.2 6.4 0.00 2.59 0.00 94 1005.1
20260506031205 10 178 3.2 6.4 0.00 2.59 0.00 94 1005.1
20260506030705 10 191 3.2 6.4 0.00 2.59 0.00 94 1005.2
20260506030205 10 222 3.2 8.0 0.00 2.59 0.00 93 1005.4
20260506025206 10 163 4.8 9.7 0.00 2.59 0.00 94 1005.3
20260506024705 11 195 4.8 9.7 0.00 2.59 0.00 94 1005.3
20260506024206 11 212 4.8 8.0 0.00 2.59 0.00 94 1005.3